H1 CPF 2 NER 2024 1 20 9 020 01 glonass140 H2 1903001 9140 44299 2024 1 20 0 0 0 2024 1 23 23 45 0 900 1 1 0 0 0 1 H9 10 0 60329 0.00000 0 7156704.826 12949306.369 -20757164.924 10 0 60329 900.00000 0 6725936.131 15380357.411 -19182484.478 10 0 60329 1800.00000 0 6500071.126 17621010.134 -17234470.073 10 0 60329 2700.00000 0 6453613.579 19611975.957 -14951028.923 10 0 60329 3600.00000 0 6551068.022 21301779.779 -12376608.954 10 0 60329 4500.00000 0 6748636.949 22648749.499 -9561328.828 10 0 60329 5400.00000 0 6996279.887 23622608.152 -6559995.782 10 0 60329 6300.00000 0 7240046.090 24205602.095 -3431030.942 10 0 60329 7200.00000 0 7424580.855 24393118.355 -235323.832 10 0 60329 8100.00000 0 7495698.109 24193765.944 2964960.691 10 0 60329 9000.00000 0 7402909.152 23628918.747 6107598.930 10 0 60329 9900.00000 0 7101799.501 22731740.433 9131523.614 10 0 60329 10800.00000 0 6556152.456 21545733.735 11978013.600 10 0 60329 11700.00000 0 5739729.027 20122876.430 14591834.415 10 0 60329 12600.00000 0 4637628.710 18521423.491 16922307.350 10 0 60329 13500.00000 0 3247173.530 16803468.601 18924286.588 10 0 60329 14400.00000 0 1578277.961 15032367.759 20559026.067 10 0 60329 15300.00000 0 -346710.934 13270132.977 21794920.136 10 0 60329 16200.00000 0 -2493696.782 11574904.711 22608104.799 10 0 60329 17100.00000 0 -4818012.512 9998607.793 22982909.107 10 0 60329 18000.00000 0 -7266045.789 8584887.607 22912149.055 10 0 60329 18900.00000 0 -9777244.539 7367411.203 22397259.306 10 0 60329 19800.00000 0 -12286420.267 6368602.716 21448260.824 10 0 60329 20700.00000 0 -14726254.729 5598864.381 20083565.377 10 0 60329 21600.00000 0 -17029907.155 5056314.348 18329620.665 10 0 60329 22500.00000 0 -19133615.090 4727051.132 16220402.514 10 0 60329 23400.00000 0 -20979181.874 4585932.852 13796763.327 10 0 60329 24300.00000 0 -22516248.354 4597838.078 11105648.548 10 0 60329 25200.00000 0 -23704254.928 4719355.116 8199195.364 10 0 60329 26100.00000 0 -24514012.565 4900828.640 5133730.232 10 0 60329 27000.00000 0 -24928817.389 5088677.532 1968683.887 10 0 60329 27900.00000 0 -24945062.117 5227886.232 -1234555.737 10 0 60329 28800.00000 0 -24572318.487 5264564.341 -4413830.754 10 0 60329 29700.00000 0 -23832886.787 5148466.085 -7507417.834 10 0 60329 30600.00000 0 -22760830.900 4835362.628 -10455226.562 10 0 60329 31500.00000 0 -21400538.840 4289166.168 -13199968.116 10 0 60329 32400.00000 0 -19804868.767 3483714.945 -15688271.286 10 0 60329 33300.00000 0 -18032957.862 2404142.422 -17871723.836 10 0 60329 34200.00000 0 -16147785.737 1047771.246 -19707818.589 10 0 60329 35100.00000 0 -14213594.348 -575507.471 -21160785.578 10 0 60329 36000.00000 0 -12293272.426 -2443387.419 -22202293.789 10 0 60329 36900.00000 0 -10445813.933 -4521828.391 -22812008.582 10 0 60329 37800.00000 0 -8723956.963 -6766238.871 -22977993.660 10 0 60329 38700.00000 0 -7172101.840 -9123112.047 -22696949.453 10 0 60329 39600.00000 0 -5824595.534 -11532048.171 -21974282.908 10 0 60329 40500.00000 0 -4704454.019 -13928079.787 -20824006.921 10 0 60329 41400.00000 0 -3822575.803 -16244203.412 -19268470.928 10 0 60329 42300.00000 0 -3177479.118 -18414012.195 -17337927.521 10 0 60329 43200.00000 0 -2755573.115 -20374319.642 -15069943.207 10 0 60329 44100.00000 0 -2531950.770 -22067664.535 -12508664.605 10 0 60329 45000.00000 0 -2471668.978 -23444591.905 -9703954.451 10 0 60329 45900.00000 0 -2531460.594 -24465614.280 -6710414.504 10 0 60329 46800.00000 0 -2661804.700 -25102770.801 -3586314.914 10 0 60329 47700.00000 0 -2809266.097 -25340718.807 -392451.674 10 0 60329 48600.00000 0 -2919003.557 -25177312.400 2809044.679 10 0 60329 49500.00000 0 -2937339.305 -24623644.262 5955924.992 10 0 60329 50400.00000 0 -2814279.714 -23703549.860 8987037.399 10 0 60329 51300.00000 0 -2505879.560 -22452595.949 11843518.856 10 0 60329 52200.00000 0 -1976349.126 -20916596.984 14469938.632 10 0 60329 53100.00000 0 -1199814.645 -19149722.851 16815371.394 10 0 60329 54000.00000 0 -161657.565 -17212278.117 18834379.303 10 0 60329 54900.00000 0 1140623.943 -15168246.437 20487884.660 10 0 60329 55800.00000 0 2697067.515 -13082703.005 21743917.090 10 0 60329 56700.00000 0 4485427.926 -11019202.888 22578221.884 10 0 60329 57600.00000 0 6471879.952 -9037253.496 22974718.932 10 0 60329 58500.00000 0 8612213.897 -7189975.493 22925804.484 10 0 60329 59400.00000 0 10853474.670 -5522048.152 22432490.872 10 0 60329 60300.00000 0 13135977.110 -4068023.169 21504382.179 10 0 60329 61200.00000 0 15395614.802 -2851075.527 20159486.644 10 0 60329 62100.00000 0 17566367.587 -1882241.893 18423869.441 10 0 60329 63000.00000 0 19582904.724 -1160176.940 16331152.141 10 0 60329 63900.00000 0 21383176.490 -671436.605 13921867.907 10 0 60329 64800.00000 0 22910887.304 -391275.592 11242684.085 10 0 60329 65700.00000 0 24117748.005 -284925.080 8345506.267 10 0 60329 66600.00000 0 24965413.691 -309296.676 5286480.354 10 0 60329 67500.00000 0 25427026.304 -415040.724 2124911.137 10 0 60329 68400.00000 0 25488297.228 -548872.180 -1077882.220 10 0 60329 69300.00000 0 25148084.161 -656065.810 -4259751.950 10 0 60329 70200.00000 0 24418437.473 -683015.121 -7358925.852 10 0 60329 71100.00000 0 23324113.375 -579746.495 -10315206.453 10 0 60329 72000.00000 0 21901573.565 -302281.634 -13071141.660 10 0 60329 72900.00000 0 20197512.564 185252.426 -15573143.863 10 0 60329 73800.00000 0 18266973.801 908856.018 -17772535.460 10 0 60329 74700.00000 0 16171132.856 1883308.256 -19626500.079 10 0 60329 75600.00000 0 13974840.258 3111295.624 -21098920.746 10 0 60329 76500.00000 0 11744026.307 4583056.195 -22161088.386 10 0 60329 77400.00000 0 9543076.297 6276556.235 -22792266.607 10 0 60329 78300.00000 0 7432285.630 8158193.570 -22980101.497 10 0 60329 79200.00000 0 5465501.076 10183999.866 -22720868.147 10 0 60329 80100.00000 0 3688046.548 12301292.884 -22019548.726 10 0 60329 81000.00000 0 2135019.880 14450710.679 -20889740.217 10 0 60329 81900.00000 0 830031.453 16568543.462 -19353393.156 10 0 60329 82800.00000 0 -215563.018 18589265.943 -17440386.073 10 0 60329 83700.00000 0 -1002904.130 20448164.338 -15187943.621 10 0 60329 84600.00000 0 -1545335.661 22083947.861 -12639909.531 10 0 60329 85500.00000 0 -1867590.163 23441234.893 -9845888.596 10 0 60330 0.00000 0 -2004488.933 24472809.067 -6860274.961 10 0 60330 900.00000 0 -1999212.771 25141550.650 -3741184.499 10 0 60330 1800.00000 0 -1901218.028 25421960.517 -549316.883 10 0 60330 2700.00000 0 -1763887.925 25301214.443 2653234.918 10 0 60330 3600.00000 0 -1642019.839 24779702.169 5804199.650 10 0 60330 4500.00000 0 -1589256.414 23871029.673 8842344.237 10 0 60330 5400.00000 0 -1655570.333 22601485.163 11708667.043 10 0 60330 6300.00000 0 -1884910.032 21008992.082 14347544.247 10 0 60330 7200.00000 0 -2313106.398 19141593.978 16707806.873 10 0 60330 8100.00000 0 -2966129.177 17055535.509 18743727.780 10 0 60330 9000.00000 0 -3858766.645 14813020.483 20415900.087 10 0 60330 9900.00000 0 -4993784.124 12479740.867 21691990.826 10 0 60330 10800.00000 0 -6361596.670 10122279.737 22547356.345 10 0 60330 11700.00000 0 -7940469.748 7805495.783 22965508.755 10 0 60330 12600.00000 0 -9697239.760 5589997.314 22938425.485 10 0 60330 13500.00000 0 -11588524.814 3529809.476 22466696.973 10 0 60330 14400.00000 0 -13562375.926 1670330.132 21559510.319 10 0 60330 15300.00000 0 -15560300.760 46657.732 20234469.574 10 0 60330 16200.00000 0 -17519576.644 -1317640.977 18517256.167 10 0 60330 17100.00000 0 -19375757.653 -2411273.649 16441135.652 10 0 60330 18000.00000 0 -21065272.343 -3235445.859 14046319.703 10 0 60330 18900.00000 0 -22528004.790 -3803557.233 11379194.907 10 0 60330 19800.00000 0 -23709751.926 -4140383.768 8491432.288 10 0 60330 20700.00000 0 -24564454.944 -4280781.193 5438993.998 10 0 60330 21600.00000 0 -25056111.558 -4267964.213 2281055.580 10 0 60330 22500.00000 0 -25160288.854 -4151434.302 -921135.905 10 0 60330 23400.00000 0 -24865172.798 -3984643.512 -4105446.110 10 0 60330 24300.00000 0 -24172109.667 -3822493.113 -7210057.173 10 0 60330 25200.00000 0 -23095615.746 -3718772.993 -10174667.660 10 0 60330 26100.00000 0 -21662853.868 -3723650.502 -12941665.131 10 0 60330 27000.00000 0 -19912597.729 -3881315.515 -15457248.304 10 0 60330 27900.00000 0 -17893726.376 -4227882.146 -17672476.656 10 0 60330 28800.00000 0 -15663311.093 -4789636.810 -19544226.725 10 0 60330 29700.00000 0 -13284373.984 -5581707.903 -21036036.211 10 0 60330 30600.00000 0 -10823411.351 -6607214.647 -22118819.183 10 0 60330 31500.00000 0 -8347784.934 -7856932.520 -22771438.195 10 0 60330 32400.00000 0 -5923089.514 -9309490.963 -22981121.903 10 0 60330 33300.00000 0 -3610606.488 -10932096.595 -22743719.754 10 0 60330 34200.00000 0 -1464949.418 -12681753.008 -22063788.405 10 0 60330 35100.00000 0 468000.457 -14506927.103 -20954507.812 10 0 60330 36000.00000 0 2152782.901 -16349593.025 -19437428.170 10 0 60330 36900.00000 0 3565601.448 -18147568.510 -17542052.245 10 0 60330 37800.00000 0 4695068.921 -19837045.860 -15305260.915 10 0 60330 38700.00000 0 5542425.366 -21355211.287 -12770592.912 10 0 60330 39600.00000 0 6121220.365 -22642842.264 -9987392.837 10 0 60330 40500.00000 0 6456474.453 -23646773.283 -7009844.301 10 0 60330 41400.00000 0 6583356.501 -24322125.782 -3895907.527 10 0 60330 42300.00000 0 6545434.549 -24634207.937 -706182.849 10 0 60330 43200.00000 0 6392575.690 -24560004.010 2497276.862 10 0 60330 44100.00000 0 6178585.495 -24089190.442 5652180.779 10 0 60330 45000.00000 0 5958688.368 -23224636.057 8697217.108 10 0 60330 45900.00000 0 5786956.750 -21982365.692 11573248.049 10 0 60330 46800.00000 0 5713798.925 -20390989.338 14224459.016 10 0 60330 47700.00000 0 5783612.293 -18490621.370 16599439.552 10 0 60330 48600.00000 0 6032701.553 -16331335.815 18652175.191 10 0 60330 49500.00000 0 6487549.689 -13971222.733 20342931.583 10 0 60330 50400.00000 0 7163514.434 -11474127.159 21639014.584 10 0 60330 51300.00000 0 8064004.822 -8907164.782 22515392.706 10 0 60330 52200.00000 0 9180172.202 -6338117.304 22955171.037 10 0 60330 53100.00000 0 10491128.627 -3832814.948 22949908.610 10 0 60330 54000.00000 0 11964683.614 -1452613.648 22499774.071 10 0 60330 54900.00000 0 13558568.910 747929.837 21613537.334 10 0 60330 55800.00000 0 15222100.719 2723089.952 20308397.788 10 0 60330 56700.00000 0 16898210.874 4437628.835 18609652.382 10 0 60330 57600.00000 0 18525763.137 5868010.083 16550209.669 10 0 60330 58500.00000 0 20042058.919 7003120.705 14169958.614 10 0 60330 59400.00000 0 21385428.678 7844472.490 11515003.566 10 0 60330 60300.00000 0 22497801.415 8405875.398 8636779.250 10 0 60330 61200.00000 0 23327145.222 8712597.367 5591062.073 10 0 60330 62100.00000 0 23829676.844 8800046.368 2436896.094 10 0 60330 63000.00000 0 23971747.458 8712030.370 -764546.187 10 0 60330 63900.00000 0 23731325.020 8498668.750 -3951146.443 10 0 60330 64800.00000 0 23099010.169 8214043.329 -7061043.841 10 0 60330 65700.00000 0 22078541.985 7913688.432 -10033835.663 10 0 60330 66600.00000 0 20686771.137 7652026.261 -12811751.732 10 0 60330 67500.00000 0 18953100.275 7479856.418 -15340779.545 10 0 60330 68400.00000 0 16918413.814 7442006.253 -17571717.955 10 0 60330 69300.00000 0 14633540.739 7575242.126 -19461138.520 10 0 60330 70200.00000 0 12157313.668 7906530.743 -20972235.558 10 0 60330 71100.00000 0 9554304.357 8451725.064 -22075548.061 10 0 60330 72000.00000 0 6892329.481 9214731.446 -22749539.139 10 0 60330 72900.00000 0 4239830.163 10187194.419 -22981021.433 10 0 60330 73800.00000 0 1663234.035 11348713.688 -22765419.918 10 0 60330 74700.00000 0 -775590.499 12667585.473 -22106866.606 10 0 60330 75600.00000 0 -3021682.038 14102038.100 -21018124.925 10 0 60330 76500.00000 0 -5029038.410 15601910.801 -19520344.804 10 0 60330 77400.00000 0 -6762288.057 17110705.724 -17642652.873 10 0 60330 78300.00000 0 -8197911.361 18567927.190 -15421585.405 10 0 60330 79200.00000 0 -9324961.526 19911609.782 -12900374.854 10 0 60330 80100.00000 0 -10145255.791 21080928.611 -10128103.934 10 0 60330 81000.00000 0 -10673030.191 22018781.335 -7158743.942 10 0 60330 81900.00000 0 -10934073.859 22674232.547 -4050096.519 10 0 60330 82800.00000 0 -10964380.967 23004716.875 -862660.263 10 0 60330 83700.00000 0 -10808378.948 22977907.342 2341554.924 10 0 60330 84600.00000 0 -10516809.586 22573169.842 5500241.673 10 0 60330 85500.00000 0 -10144354.185 21782542.238 8552012.601 10 0 60331 0.00000 0 -9747104.744 20611197.012 11437596.667 10 0 60331 900.00000 0 -9379988.973 19077367.540 14100992.184 10 0 60331 1800.00000 0 -9094259.317 17211743.100 16490550.018 10 0 60331 2700.00000 0 -8935151.743 15056356.287 18559971.303 10 0 60331 3600.00000 0 -8939813.627 12663011.215 20269196.949 10 0 60331 4500.00000 0 -9135587.627 10091317.749 21585174.124 10 0 60331 5400.00000 0 -9538723.378 7406413.746 22482485.668 10 0 60331 6300.00000 0 -10153570.659 4676469.606 22943831.454 10 0 60331 7200.00000 0 -10972287.488 1970078.148 22960353.499 10 0 60331 8100.00000 0 -11975075.126 -646362.973 22531799.552 10 0 60331 9000.00000 0 -13130930.162 -3111169.095 21666522.725 10 0 60331 9900.00000 0 -14398882.448 -5369683.742 20381317.569 10 0 60331 10800.00000 0 -15729667.667 -7376296.780 18701095.816 10 0 60331 11700.00000 0 -17067765.296 -9096083.404 16658407.735 10 0 60331 12600.00000 0 -18353717.569 -10505997.334 14292817.783 10 0 60331 13500.00000 0 -19526633.229 -11595569.887 11650145.822 10 0 60331 14400.00000 0 -20526771.989 -12367086.893 8781587.648 10 0 60331 15300.00000 0 -21298101.897 -12835236.891 5742731.006 10 0 60331 16200.00000 0 -21790722.577 -13026245.946 2592485.335 10 0 60331 17100.00000 0 -21963052.535 -12976535.821 -608054.685 10 0 60331 18000.00000 0 -21783688.202 -12730962.144 -3796790.096 10 0 60331 18900.00000 0 -21232855.760 -12340706.917 -6911820.450 10 0 60331 19800.00000 0 -20303393.689 -11860914.394 -9892645.088 10 0 60331 20700.00000 0 -19001223.371 -11348170.232 -12681339.352 10 0 60331 21600.00000 0 -17345286.548 -10857930.662 -15223682.644 10 0 60331 22500.00000 0 -15366950.706 -10442010.618 -17470216.084 10 0 60331 23400.00000 0 -13108905.784 -10146237.434 -19377208.841 10 0 60331 24300.00000 0 -10623597.002 -10008369.846 -20907514.024 10 0 60331 25200.00000 0 -7971258.028 -10056370.881 -22031297.238 10 0 60331 26100.00000 0 -5217625.584 -10307108.408 -22726623.293 10 0 60331 27000.00000 0 -2431429.929 -10765539.065 -22979889.400 10 0 60331 27900.00000 0 318234.870 -11424410.976 -22786096.107 10 0 60331 28800.00000 0 2964551.794 -12264498.703 -22148950.325 10 0 60331 29700.00000 0 5445523.247 -13255361.450 -21080798.066 10 0 60331 30600.00000 0 7706309.349 -14356593.276 -19602387.739 10 0 60331 31500.00000 0 9701264.923 -15519513.220 -17742468.248 10 0 60331 32400.00000 0 11395590.604 -16689224.350 -15537229.378 10 0 60331 33300.00000 0 12766529.602 -17806954.979 -13029595.156 10 0 60331 34200.00000 0 13804060.795 -18812583.048 -10268384.012 10 0 60331 35100.00000 0 14511060.098 -19647236.651 -7307352.287 10 0 60331 36000.00000 0 14902924.651 -20255860.318 -4204140.232 10 0 60331 36900.00000 0 15006677.096 -20589637.951 -1019141.741 10 0 60331 37800.00000 0 14859589.395 -20608169.383 2185679.282 10 0 60331 38700.00000 0 14507385.983 -20281308.077 5348001.947 10 0 60331 39600.00000 0 14002103.844 -19590581.950 8406366.215 10 0 60331 40500.00000 0 13399701.457 -18530137.182 11301371.069 10 0 60331 41400.00000 0 12757518.932 -17107165.205 13976829.218 10 0 60331 42300.00000 0 12131697.513 -15341795.003 16380855.642 10 0 60331 43200.00000 0 11574667.942 -13266455.417 18466869.004 10 0 60331 44100.00000 0 11132813.670 -10924734.312 20194487.058 10 0 60331 45000.00000 0 10844407.133 -8369782.338 21530299.496 10 0 60331 45900.00000 0 10737905.369 -5662327.702 22448504.329 10 0 60331 46800.00000 0 10830675.910 -2868384.164 22931396.682 10 0 60331 47700.00000 0 11128205.664 -56746.803 22969701.676 10 0 60331 48600.00000 0 11623825.317 2703621.511 22562745.952 10 0 60331 49500.00000 0 12298960.344 5346205.868 21718465.310 10 0 60331 50400.00000 0 13123897.908 7809450.294 20453248.681 10 0 60331 51300.00000 0 14059037.630 10039061.426 18791621.562 10 0 60331 52200.00000 0 15056574.219 11990010.928 16765774.706 10 0 60331 53100.00000 0 16062542.032 13628154.942 14414946.626 10 0 60331 54000.00000 0 17019136.544 14931404.577 11784671.060 10 0 60331 54900.00000 0 17867216.035 15890399.782 8925903.046 10 0 60331 55800.00000 0 18548879.010 16508659.330 5894039.647 10 0 60331 56700.00000 0 19010009.403 16802201.258 2747853.480 10 0 60331 57600.00000 0 19202682.569 16798650.094 -451640.939 10 0 60331 58500.00000 0 19087330.543 16535868.563 -3642366.458 10 0 60331 59400.00000 0 18634574.726 16060171.458 -6762385.491 10 0 60331 60300.00000 0 17826647.869 15424196.915 -9751101.870 10 0 60331 61200.00000 0 16658344.165 14684524.922 -12550438.801 10 0 60331 62100.00000 0 15137455.981 13899143.580 -15105969.795 10 0 60331 63000.00000 0 13284677.142 13124870.241 -17367980.291 10 0 60331 63900.00000 0 11132975.113 12414836.592 -19292438.945 10 0 60331 64800.00000 0 8726456.670 11816144.222 -20841859.396 10 0 60331 65700.00000 0 6118772.917 11367790.003 -21986035.455 10 0 60331 66600.00000 0 3371128.930 11098949.348 -22702635.075 10 0 60331 67500.00000 0 549979.889 11027690.319 -22977641.311 10 0 60331 68400.00000 0 -2275491.192 11160173.415 -22805631.325 10 0 60331 69300.00000 0 -5036009.736 11490371.372 -22189887.680 10 0 60331 70200.00000 0 -7664850.577 12000321.360 -21142339.356 10 0 60331 71100.00000 0 -10100374.006 12660899.404 -19683333.214 10 0 60331 72000.00000 0 -12288351.432 13433084.679 -17841239.968 10 0 60331 72900.00000 0 -14183983.939 14269660.467 -15651902.026 10 0 60331 73800.00000 0 -15753529.807 15117279.895 -13157933.714 10 0 60331 74700.00000 0 -16975473.409 15918808.872 -10407887.559 10 0 60331 75600.00000 0 -17841187.289 16615846.678 -7455303.059 10 0 60331 76500.00000 0 -18355060.632 17151316.958 -4357656.949 10 0 60331 77400.00000 0 -18534089.968 17472018.718 -1175236.121 10 0 60331 78300.00000 0 -18406950.851 17531028.612 2030043.985 10 0 60331 79200.00000 0 -18012591.231 17289852.189 5195851.562 10 0 60331 80100.00000 0 -17398407.550 16720232.513 8260656.638 10 0 60331 81000.00000 0 -16618082.103 15805539.355 11164930.785 10 0 60331 81900.00000 0 -15729174.342 14541680.070 13852304.497 10 0 60331 82800.00000 0 -14790568.826 12937493.674 16270659.460 10 0 60331 83700.00000 0 -13859888.100 11014611.566 18373134.664 10 0 60331 84600.00000 0 -12990979.754 8806790.677 20119027.370 10 0 60331 85500.00000 0 -12231583.227 6358746.918 21474572.239 10 0 60332 0.00000 0 -11621273.940 3724537.631 22413584.560 10 0 60332 900.00000 0 -11189769.930 965558.534 22917956.722 10 0 60332 1800.00000 0 -10955671.837 -1851758.655 22977998.287 10 0 60332 2700.00000 0 -10925686.941 -4658457.976 22592615.818 10 0 60332 3600.00000 0 -11094369.712 -7385673.920 21769328.359 10 0 60332 4500.00000 0 -11444388.709 -9967243.373 20524119.312 10 0 60332 5400.00000 0 -11947308.297 -12342207.853 18881127.542 10 0 60332 6300.00000 0 -12564852.329 -14457103.740 16872183.409 10 0 60332 7200.00000 0 -13250597.012 -16267946.859 14536198.159 10 0 60332 8100.00000 0 -13952022.292 -17741830.224 11918417.675 10 0 60332 9000.00000 0 -14612836.136 -18858069.492 9069554.150 10 0 60332 9900.00000 0 -15175474.500 -19608849.163 6044811.570 10 0 60332 10800.00000 0 -15583672.147 -19999343.114 2902823.108 10 0 60332 11700.00000 0 -15784996.250 -20047304.751 -295479.722 10 0 60332 12600.00000 0 -15733235.813 -19782144.142 -3488044.564 10 0 60332 13500.00000 0 -15390545.730 -19243530.882 -6612899.816 10 0 60332 14400.00000 0 -14729254.191 -18479581.443 -9609357.020 10 0 60332 15300.00000 0 -13733256.089 -17544707.208 -12419190.511 10 0 60332 16200.00000 0 -12398932.199 -16497213.811 -14987771.151 10 0 60332 17100.00000 0 -10735553.771 -15396752.948 -17265131.829 10 0 60332 18000.00000 0 -8765153.650 -14301734.150 -19206943.610 10 0 60332 18900.00000 0 -6521867.450 -13266805.741 -20775383.260 10 0 60332 19800.00000 0 -4050770.555 -12340511.340 -21939874.969 10 0 60332 20700.00000 0 -1406257.903 -11563220.915 -22677691.523 10 0 60332 21600.00000 0 1349967.242 -10965423.835 -22974402.970 10 0 60332 22500.00000 0 4151212.845 -10566456.107 -22824163.714 10 0 60332 23400.00000 0 6928330.216 -10373715.713 -22229832.091 10 0 60332 24300.00000 0 9612353.871 -10382399.324 -21202919.709 10 0 60332 25200.00000 0 12137139.589 -10575771.655 -19763371.123 10 0 60332 26100.00000 0 14441890.957 -10925956.141 -17939177.707 10 0 60332 27000.00000 0 16473469.216 -11395213.429 -15765832.955 10 0 60332 27900.00000 0 18188390.133 -11937653.446 -13285639.567 10 0 60332 28800.00000 0 19554424.643 -12501308.168 -10546881.851 10 0 60332 29700.00000 0 20551736.705 -13030476.783 -7602879.784 10 0 60332 30600.00000 0 21173511.329 -13468243.197 -4510943.572 10 0 60332 31500.00000 0 21426047.324 -13759058.385 -1331249.833 10 0 60332 32400.00000 0 21328312.086 -13851277.308 1874337.877 10 0 60332 33300.00000 0 20910978.576 -13699542.092 5043480.296 10 0 60332 34200.00000 0 20214986.601 -13266909.831 8114580.885 10 0 60332 35100.00000 0 19289690.583 -12526634.401 11027986.982 10 0 60332 36000.00000 0 18190673.314 -11463526.610 13727149.746 10 0 60332 36900.00000 0 16977319.014 -10074835.002 16159720.101 10 0 60332 37800.00000 0 15710248.703 -8370610.096 18278559.503 10 0 60332 38700.00000 0 14448726.215 -6373536.611 20042646.448 10 0 60332 39600.00000 0 13248143.803 -4118240.563 21417861.895 10 0 60332 40500.00000 0 12157692.444 -1650099.925 22377639.469 10 0 60332 41400.00000 0 11218313.654 976392.010 22903469.013 10 0 60332 42300.00000 0 10461017.536 3699643.064 22985244.902 10 0 60332 43200.00000 0 9905636.238 6453275.535 22621453.405 10 0 60332 44100.00000 0 9560063.714 9168641.582 21819196.269 10 0 60332 45000.00000 0 9420012.515 11777437.587 20594050.493 10 0 60332 45900.00000 0 9469296.885 14214310.482 18969767.151 10 0 60332 46800.00000 0 9680629.725 16419349.393 16977814.801 10 0 60332 47700.00000 0 10016899.724 18340360.463 14656775.764 10 0 60332 48600.00000 0 10432875.086 19934831.582 12051606.202 10 0 60332 49500.00000 0 10877262.472 21171506.221 9212773.385 10 0 60332 50400.00000 0 11295034.895 22031501.529 6195285.975 10 0 60332 51300.00000 0 11629930.840 22508924.475 3057635.268 10 0 60332 52200.00000 0 11827019.486 22610960.522 -139332.755 10 0 60332 53100.00000 0 11835223.766 22357431.146 -3333593.139 10 0 60332 54000.00000 0 11609694.493 21779838.681 -6463142.869 10 0 60332 54900.00000 0 11113934.626 20919938.376 -9467203.725 10 0 60332 55800.00000 0 10321583.049 19827897.495 -12287403.562 10 0 60332 56700.00000 0 9217781.246 18560118.662 -14868912.814 10 0 60332 57600.00000 0 7800063.640 17176818.870 -17161513.838 10 0 60332 58500.00000 0 6078732.303 15739465.938 -19120581.929 10 0 60332 59400.00000 0 4076698.327 14308180.239 -20707958.606 10 0 60332 60300.00000 0 1828794.523 12939211.037 -21892699.873 10 0 60332 61200.00000 0 -619413.636 11682593.657 -22651684.593 10 0 60332 62100.00000 0 -3213270.773 10580086.080 -22970070.821 10 0 60332 63000.00000 0 -5891060.975 9663471.812 -22841590.940 10 0 60332 63900.00000 0 -8586340.195 8953300.447 -22268679.462 10 0 60332 64800.00000 0 -11230475.313 8458118.874 -21262430.639 10 0 60332 65700.00000 0 -13755284.577 8174225.362 -19842386.306 10 0 60332 66600.00000 0 -16095669.599 8085956.658 -18036157.649 10 0 60332 67500.00000 0 -18192129.237 8166495.606 -15878888.008 10 0 60332 68400.00000 0 -19993050.416 8379164.677 -13412566.873 10 0 60332 69300.00000 0 -21456680.135 8679150.051 -10685208.498 10 0 60332 70200.00000 0 -22552696.225 9015582.511 -7749911.297 10 0 60332 71100.00000 0 -23263311.363 9333886.090 -4663816.781 10 0 60332 72000.00000 0 -23583864.530 9578293.927 -1486989.029 10 0 60332 72900.00000 0 -23522875.913 9694423.670 1718762.638 10 0 60332 73800.00000 0 -23101564.039 9631802.256 4891093.929 10 0 60332 74700.00000 0 -22352846.766 9346232.181 7968344.247 10 0 60332 75600.00000 0 -21319869.583 8801898.338 10890739.256 10 0 60332 76500.00000 0 -20054124.549 7973125.733 13601553.376 10 0 60332 77400.00000 0 -18613240.273 6845713.474 16048209.341 10 0 60332 78300.00000 0 -17058536.794 5417788.524 18183293.558 10 0 60332 79200.00000 0 -15452448.648 3700143.124 19965468.079 10 0 60332 80100.00000 0 -13855924.375 1716041.549 21360262.241 10 0 60332 81000.00000 0 -12325911.115 -499495.998 22340729.715 10 0 60332 81900.00000 0 -10913028.845 -2900902.840 22887959.412 10 0 60332 82800.00000 0 -9659530.394 -5433718.835 22991431.474 10 0 60332 83700.00000 0 -8597631.184 -8036618.956 22649212.569 10 0 60332 84600.00000 0 -7748276.974 -10643734.226 21867987.440 10 0 60332 85500.00000 0 -7120399.693 -13187169.801 20662926.611 99